FW8114 Weather Reports


time (UTC)temp
F
wind
direction
speed
knots
gust
knots
rain 1hr
in
rain 24hr
in
rain mn
in
humidity
%
barometer
mb
20260503220452 61 238 3.5 4.3 0.00 0.00 0.00 31 1011.7
20260503215948 61 301 2.6 2.6 0.00 0.00 0.00 32 1011.5
20260503215445 61 233 2.6 5.2 0.00 0.00 0.00 33 1011.6
20260503214943 61 290 1.7 4.3 0.00 0.00 0.00 31 1011.7
20260503214441 60 238 4.3 6.1 0.00 0.00 0.00 30 1011.7
20260503213938 60 315 2.6 4.3 0.00 0.00 0.00 30 1011.6
20260503213436 60 280 7.0 9.6 0.00 0.00 0.00 31 1011.6
20260503212932 61 335 5.2 7.8 0.00 0.00 0.00 32 1011.5
20260503212430 60 325 8.7 13.0 0.00 0.00 0.00 30 1011.5
20260503211927 61 281 2.6 2.6 0.00 0.00 0.00 33 1011.5
20260503211424 60 262 4.3 6.1 0.00 0.00 0.00 32 1011.6
20260503210919 60 318 0.9 4.3 0.00 0.00 0.00 33 1011.8
20260503210416 60 324 3.5 5.2 0.00 0.00 0.00 32 1011.6
20260503205910 59 293 6.1 7.8 0.00 0.00 0.00 30 1011.6
20260503205408 60 226 5.2 6.1 0.00 0.00 0.00 32 1011.6
20260503204904 60 8 3.5 4.3 0.00 0.00 0.00 32 1011.7
20260503204401 60 309 7.8 9.6 0.00 0.00 0.00 31 1011.6
20260503203859 59 264 8.7 11.3 0.00 0.00 0.00 31 1011.6
20260503203356 60 323 6.1 9.6 0.00 0.00 0.00 32 1011.6
20260503202852 59 251 6.1 8.7 0.00 0.00 0.00 32 1011.8
20260503202351 59 302 5.2 7.8 0.00 0.00 0.00 33 1011.8
20260503201849 59 335 9.6 11.3 0.00 0.00 0.00 31 1011.8
20260503201345 59 331 6.1 7.0 0.00 0.00 0.00 30 1011.8
20260503200843 59 282 2.6 4.3 0.00 0.00 0.00 33 1011.8
20260503200338 58 315 8.7 13.9 0.00 0.00 0.00 33 1011.9
20260503195836 58 1 7.8 11.3 0.00 0.00 0.00 32 1012.0
20260503195332 59 350 7.0 9.6 0.00 0.00 0.00 31 1012.0
20260503194830 60 294 9.6 13.0 0.00 0.00 0.00 32 1012.2
20260503194326 60 238 0.9 1.7 0.00 0.00 0.00 32 1011.9
20260503193822 60 216 2.6 4.3 0.00 0.00 0.00 34 1012.0
20260503193318 59 338 3.5 4.3 0.00 0.00 0.00 32 1012.0
20260503192814 59 233 6.1 8.7 0.00 0.00 0.00 33 1012.3
20260503192310 59 232 7.0 7.8 0.00 0.00 0.00 33 1012.2
20260503191806 58 332 10.4 12.2 0.00 0.00 0.00 31 1012.2
20260503191303 58 354 2.6 5.2 0.00 0.00 0.00 36 1012.2
20260503190800 58 285 8.7 11.3 0.00 0.00 0.00 31 1012.2
20260503190257 58 328 9.6 13.0 0.00 0.00 0.00 34 1012.3
20260503185754 58 317 8.7 11.3 0.00 0.00 0.00 33 1012.3
20260503185250 58 323 7.8 11.3 0.00 0.00 0.00 35 1012.4
20260503184744 57 290 1.7 2.6 0.00 0.00 0.00 34 1012.7
20260503184241 58 245 5.2 7.0 0.00 0.00 0.00 37 1012.3
20260503183737 58 252 7.8 13.0 0.00 0.00 0.00 34 1012.5
20260503183235 58 318 12.2 17.4 0.00 0.00 0.00 33 1012.7
20260503182732 58 322 14.8 18.2 0.00 0.00 0.00 36 1012.7
20260503182231 57 300 4.3 6.1 0.00 0.00 0.00 37 1012.7
20260503181728 56 266 7.0 8.7 0.00 0.00 0.00 33 1012.7
20260503181225 57 320 9.6 13.0 0.00 0.00 0.00 35 1012.5
20260503180721 56 307 5.2 7.0 0.00 0.00 0.00 36 1012.7
20260503180219 56 288 4.3 6.1 0.00 0.00 0.00 36 1012.7
20260503175715 56 341 5.2 6.1 0.00 0.00 0.00 37 1012.8
20260503175214 56 347 13.9 18.2 0.00 0.00 0.00 35 1012.8
20260503174709 56 317 7.0 9.6 0.00 0.00 0.00 39 1012.9
20260503174207 54 307 4.3 6.1 0.00 0.00 0.00 41 1012.8
20260503173707 55 351 7.0 8.7 0.00 0.00 0.00 38 1013.1
20260503173204 54 278 7.0 7.8 0.00 0.00 0.00 41 1013.0
20260503172701 54 316 6.1 7.8 0.00 0.00 0.00 40 1012.9
20260503172158 54 298 4.3 5.2 0.00 0.00 0.00 42 1013.0
20260503171654 53 287 4.3 5.2 0.00 0.00 0.00 42 1013.3
20260503171152 55 311 11.3 13.0 0.00 0.00 0.00 40 1013.2
20260503170649 54 346 6.1 8.7 0.00 0.00 0.00 41 1013.2
20260503170145 53 343 2.6 4.3 0.00 0.00 0.00 43 1013.4
20260503160107 53 265 7.0 8.7 0.00 0.00 0.00 47 1013.6
20260503150537 49 297 4.3 7.0 0.00 0.00 0.00 47 1014.2
20260503130927 48 271 2.6 5.2 0.00 0.00 0.00 54 1013.9
20260503130424 48 267 5.2 7.0 0.00 0.00 0.00 56 1014.1
20260503110326 44 281 2.6 2.6 0.00 0.00 0.00 63 1013.3
20260503100252 44 350 4.3 6.1 0.00 0.00 0.00 60 1012.7
20260503090212 45 23 0.9 1.7 0.00 0.00 0.00 57 1012.2
20260503081138 45 268 0.0 0.0 0.00 0.00 0.00 59 1011.8
20260503080635 45 256 0.9 0.9 0.00 0.00 0.00 59 1011.9
20260503080132 46 267 0.0 0.0 0.00 0.00 0.00 58 1011.9
20260503072609 46 237 0.0 0.0 0.00 0.00 0.00 57 1011.7
20260503072106 47 314 1.7 1.7 0.00 0.00 0.00 58 1011.9
20260503071602 47 252 0.0 0.0 0.00 0.00 0.00 57 1011.7
20260503071059 47 320 3.5 4.3 0.00 0.00 0.00 56 1011.8
20260503070555 47 272 0.9 1.7 0.00 0.00 0.00 55 1011.7
20260503055014 47 212 0.0 0.0 0.00 0.00 0.00 59 1011.8
20260503054510 48 231 0.0 0.0 0.00 0.00 0.00 57 1012.0
20260503054008 48 234 0.0 0.0 0.00 0.00 0.00 55 1011.9
20260503053506 48 317 1.7 1.7 0.00 0.00 0.00 54 1012.1
20260503053003 48 260 0.0 0.9 0.00 0.00 0.00 54 1012.0
20260503052500 48 243 0.9 1.7 0.00 0.00 0.00 53 1012.0
20260503051956 48 6 0.9 1.7 0.00 0.00 0.00 55 1012.1
20260503051452 48 287 1.7 2.6 0.00 0.00 0.00 53 1012.1
20260503050949 48 291 1.7 1.7 0.00 0.00 0.00 53 1012.0
20260503050445 48 253 0.0 0.0 0.00 0.00 0.00 54 1012.3
20260503045943 49 275 0.9 0.9 0.00 0.00 0.00 52 1012.3
20260503045440 49 243 0.0 0.0 0.00 0.00 0.00 55 1012.1
20260503044937 48 283 0.9 1.7 0.00 0.00 0.00 53 1012.2
20260503044433 49 271 0.9 1.7 0.00 0.00 0.00 54 1012.2
20260503043931 49 313 0.9 1.7 0.00 0.00 0.00 54 1012.4
20260503043427 48 281 0.9 1.7 0.00 0.00 0.00 55 1012.4
20260503042924 48 311 0.9 1.7 0.00 0.00 0.00 56 1012.4
20260503042421 47 234 0.9 0.9 0.00 0.00 0.00 59 1012.5
20260503041917 46 241 0.0 0.0 0.00 0.00 0.00 64 1012.5
20260503041414 45 232 0.0 0.0 0.00 0.00 0.00 65 1012.5
20260503040912 44 241 0.0 0.0 0.00 0.00 0.00 69 1012.5
20260503040409 43 237 0.0 0.0 0.00 0.00 0.00 75 1012.6
20260503035906 42 234 0.0 0.0 0.00 0.00 0.00 77 1012.6
20260503035403 42 233 0.0 0.0 0.00 0.00 0.00 79 1012.4
20260503034900 42 233 0.0 0.0 0.00 0.00 0.00 79 1012.4
20260503034358 42 233 0.0 0.0 0.00 0.00 0.00 79 1012.6
20260503033854 43 231 0.0 0.0 0.00 0.00 0.00 79 1012.5
20260503033352 43 231 0.0 0.0 0.00 0.00 0.00 78 1012.4
20260503032850 43 230 0.0 0.0 0.00 0.00 0.00 79 1012.4
20260503032349 44 230 0.0 0.0 0.00 0.00 0.00 79 1012.5
20260503031846 44 225 0.0 0.0 0.00 0.00 0.00 77 1012.3
20260503031343 44 235 0.0 0.0 0.00 0.00 0.00 74 1012.2
20260503030839 44 235 0.0 0.0 0.00 0.00 0.00 72 1012.2
20260503030336 44 235 0.0 0.0 0.00 0.00 0.00 74 1012.5
20260503025833 45 240 0.0 0.0 0.00 0.00 0.00 73 1012.5
20260503025330 44 240 0.0 0.0 0.00 0.00 0.00 76 1012.4
20260503024827 44 237 0.0 0.0 0.00 0.00 0.00 75 1012.5
20260503024324 45 242 0.0 0.0 0.00 0.00 0.00 75 1012.8
20260503023820 45 235 0.0 0.0 0.00 0.00 0.00 74 1012.6
20260503023318 46 234 0.0 0.0 0.00 0.00 0.00 73 1012.6
20260503022815 46 237 0.0 0.0 0.00 0.00 0.00 74 1012.4
20260503022314 47 248 0.0 0.0 0.00 0.00 0.00 76 1012.5
20260503021811 47 252 0.0 0.9 0.00 0.00 0.00 73 1012.4
20260503021307 47 234 0.0 0.0 0.00 0.00 0.00 70 1012.5
20260503020805 47 234 0.0 0.0 0.00 0.00 0.00 68 1012.5
20260503020303 47 238 0.0 0.0 0.00 0.00 0.00 67 1012.4
20260503015758 47 234 0.0 0.0 0.00 0.00 0.00 69 1012.5
20260503015256 48 234 0.0 0.0 0.00 0.00 0.00 69 1012.3
20260503014751 48 234 0.0 0.0 0.00 0.00 0.00 68 1012.4
20260503014249 49 237 0.0 0.0 0.00 0.00 0.00 66 1012.5
20260503013746 49 242 0.0 0.0 0.00 0.00 0.00 69 1012.6
20260503013244 49 239 0.0 0.0 0.00 0.00 0.00 65 1012.5
20260503012741 48 245 0.0 0.0 0.00 0.00 0.00 64 1012.6
20260503012238 48 233 0.0 0.0 0.00 0.00 0.00 66 1012.5
20260503011735 48 233 0.0 0.0 0.00 0.00 0.00 68 1012.5
20260503011232 49 233 0.0 0.0 0.00 0.00 0.00 69 1012.4
20260503010728 49 234 0.0 0.0 0.00 0.00 0.00 68 1012.3
20260503010225 50 236 0.0 0.0 0.00 0.00 0.00 67 1012.4
20260503005723 50 234 0.0 0.0 0.00 0.00 0.00 64 1012.2
20260503005220 50 234 0.0 0.0 0.00 0.00 0.00 64 1012.2
20260503004716 50 242 0.0 0.0 0.00 0.00 0.00 62 1011.8
20260503004214 50 239 0.0 0.0 0.00 0.00 0.00 55 1011.9
20260503003711 51 234 0.0 0.0 0.00 0.00 0.00 54 1011.7
20260503003208 51 236 0.0 0.0 0.00 0.00 0.00 54 1011.7
20260503002705 52 235 0.0 0.0 0.00 0.00 0.00 52 1011.7
20260503002202 52 238 0.0 0.0 0.00 0.00 0.00 49 1011.7
20260503001657 53 237 0.0 0.0 0.00 0.00 0.00 46 1011.7
20260503001154 53 234 0.0 0.0 0.00 0.00 0.00 46 1011.8
20260503000652 54 237 0.0 0.0 0.00 0.00 0.00 46 1011.7
20260503000149 55 246 0.0 0.0 0.00 0.00 0.00 43 1011.7
20260502235646 54 271 0.9 0.9 0.00 0.00 0.00 42 1011.7
20260502235144 55 338 2.6 2.6 0.00 0.00 0.00 43 1011.4
20260502234639 55 296 1.7 2.6 0.00 0.00 0.00 42 1011.5
20260502234137 55 247 0.0 0.0 0.00 0.00 0.00 44 1011.5
20260502233633 56 240 0.9 0.9 0.00 0.00 0.00 44 1011.6
20260502233130 56 249 0.0 0.0 0.00 0.00 0.00 42 1011.6
20260502232625 56 243 1.7 1.7 0.00 0.00 0.00 42 1011.7
20260502232123 56 285 0.9 1.7 0.00 0.00 0.00 42 1011.4
20260502231620 56 254 1.7 1.7 0.00 0.00 0.00 41 1011.6
20260502231118 56 293 1.7 1.7 0.00 0.00 0.00 41 1011.4
20260502230616 57 248 0.0 0.0 0.00 0.00 0.00 42 1011.4
20260502230114 57 309 1.7 1.7 0.00 0.00 0.00 40 1011.4
20260502225609 57 235 0.0 0.9 0.00 0.00 0.00 41 1011.5
20260502225107 57 235 0.9 1.7 0.00 0.00 0.00 40 1011.3
20260502224603 57 248 0.9 0.9 0.00 0.00 0.00 39 1011.3
20260502224100 57 238 0.9 0.9 0.00 0.00 0.00 39 1011.4
20260502223557 57 317 1.7 1.7 0.00 0.00 0.00 39 1011.1
20260502223056 57 295 2.6 2.6 0.00 0.00 0.00 38 1011.3
20260502222553 58 284 2.6 2.6 0.00 0.00 0.00 39 1011.0
20260502222049 59 255 2.6 2.6 0.00 0.00 0.00 38 1011.2
20260502221545 60 305 4.3 5.2 0.00 0.00 0.00 37 1011.1
20260502221042 61 311 4.3 5.2 0.00 0.00 0.00 36 1011.1